User: anonymous   Login
Location: Unspecified
(0.0000°N, 0.0000°E)
Time: 06:54:34
(UTC+00:00)
Language:

HEATHSAT - Orbit

View from above orbital plane
View from above orbital plane
View from above satellite
View from above satellite

Ground track
Ground track

The orbit data is extracted from the following two-line orbital elements,

1 22827U 93061E   19082.90761704 -.00000014 +00000-0 +12456-4 0  9992
2 22827 098.8900 076.4709 0008532 197.4775 219.3734 14.31287644330014
Epoch (UTC): 23 March 2019 21:46:58
Eccentricity: 0.0008532
inclination: 98.8900°
perigee height: 781 km
apogee height: 793 km
right ascension of ascending node: 76.4709°
argument of perigee: 197.4775°
revolutions per day: 14.31287644
mean anomaly at epoch: 219.3734°
orbit number at epoch: 33001

The dashed part of the orbit path shows where the satellite is in the earth's shadow,  

DLR